星链-30984 (STARLINK-30984 )

导读 | 星芒AI

STARLINK-30984 是 SpaceX 星链计划中的一颗低轨通信卫星,属于第 11 批部署的星链卫星群。该卫星于 2023 年发射,运行在约 550 公里的轨道高度,主要用于提供全球宽带互联网服务。作为星链网络的一部分,它支持高速、低延迟的网络连接,服务于偏远和网络基础设施薄弱的地区。该卫星采用可再生太阳能供电,并具备自动避撞功能,以确保在轨安全运行。

基本信息
目录编号:
58480
目录名称:
STARLINK-30984
国际标识:
2023-186H
轨道中心:
EARTH
卫星名称:
星链-30984
卫星全名:
星链-30984 (STARLINK-30984 )
卫星状态:
在轨 (已飞行698 天)
发射日期:
2023-12-03 UTC
国别 :
美国 (US)
星等 :
--
轨道信息
数据来源 国际轨道数据 AOE轨道数据
星历时间 2025-10-30T23:18:22+0800
22小时前
查看轨道信息
2025-10-29T10:00:00+0800
2天前
查看轨道信息
半长轴 6937.209km 6937.217km
偏心率 0.000122 0.0001214
轨道倾角 43.004° 43.003°
近地点辐角 273.353° 257.443°
升交点赤经 53.652° 62.101°
平近点角 86.717° 324.926°
近地点 558.227km 558.239km
远地点 559.921km 559.925km
周期 95.838分钟 95.838分钟
每日圈数 15.025386 15.025359
详细信息
固有亮度:
5
最大亮度:
0.3
卫星平台:
Starlink v2.0 mini
覆盖范围:
全球
运营商:
太空探索技术公司
运营商所在国:
美国
制造商(研发单位):
太空探索技术公司
制造商所在国:
美国
使用方式:
暂无
卫星简介
星链(Starlink)计划是由太空探索技术公司(SpaceX)提出的一个巨型低轨卫星互联网星座项目,计划在2019年至2024年间在太空搭建由约1.2万颗卫星组成的“星链”网络,其中1584颗将部署在地球上空550千米处的近地轨道,并从2020年开始工作。该卫星仍在工作。
2D轨道图
3D轨道图
轨道高度分析图
轨道倾角分析图
轨道综合分析图
查看轨道综合分析图